Wetterdaten: Mittwoch, 24.07.2013
Datum Zeit Temperatur Luftfeuchte Luftdruck Regen Wind Richtung Richtung Taupunkt Windchill Windben
24.07.2013 00:00 19,2 C 68 % 1019,9 hPa 0,0 l/m 4,8 km/h (1 Bft) S-SW 202 13,1 C 18,8 C 14,5 km/h (3 Bft)
24.07.2013 00:05 19,4 C 68 % 1020,2 hPa 0,0 l/m 7,7 km/h (2 Bft) S 180 13,3 C 18,7 C 11,4 km/h (2 Bft)
24.07.2013 00:10 19,4 C 68 % 1020,2 hPa 0,0 l/m 8,5 km/h (2 Bft) S 180 13,3 C 18,8 C 14,6 km/h (3 Bft)
24.07.2013 00:15 19,5 C 68 % 1020,2 hPa 0,0 l/m 7,7 km/h (2 Bft) SW 225 13,4 C 19,3 C 10,6 km/h (2 Bft)
24.07.2013 00:20 19,4 C 68 % 1020,2 hPa 0,0 l/m 6,4 km/h (2 Bft) S 180 13,3 C 19,8 C 8,5 km/h (2 Bft)
24.07.2013 00:25 19,4 C 68 % 1020,5 hPa 0,0 l/m 6,4 km/h (2 Bft) S 180 13,3 C 19,8 C 7,7 km/h (2 Bft)
24.07.2013 00:30 19,3 C 68 % 1020,5 hPa 0,0 l/m 7,9 km/h (2 Bft) W-SW 247 13,2 C 19,1 C 13,0 km/h (3 Bft)
24.07.2013 00:35 19,2 C 68 % 1020,5 hPa 0,0 l/m 8,0 km/h (2 Bft) S-SO 157 13,1 C 18,9 C 12,1 km/h (2 Bft)
24.07.2013 00:40 19,1 C 69 % 1020,5 hPa 0,0 l/m 6,6 km/h (2 Bft) O 90 13,3 C 19,4 C 6,9 km/h (2 Bft)
24.07.2013 00:45 19,0 C 69 % 1020,4 hPa 0,0 l/m 5,5 km/h (1 Bft) S 180 13,2 C 19,4 C 11,3 km/h (2 Bft)
24.07.2013 00:50 19,1 C 67 % 1020,4 hPa 0,0 l/m 6,3 km/h (2 Bft) S-SO 157 12,8 C 19,4 C 11,9 km/h (2 Bft)
24.07.2013 00:55 19,1 C 67 % 1020,4 hPa 0,0 l/m 7,9 km/h (2 Bft) O-SO 112 12,8 C 18,8 C 8,7 km/h (2 Bft)
24.07.2013 01:00 19,0 C 66 % 1020,4 hPa 0,0 l/m 7,2 km/h (2 Bft) S 180 12,5 C 19,1 C 9,0 km/h (2 Bft)
24.07.2013 01:05 19,1 C 65 % 1020,4 hPa 0,0 l/m 6,0 km/h (2 Bft) O-NO 67 12,4 C 19,4 C 4,0 km/h (1 Bft)
24.07.2013 01:10 18,8 C 66 % 1020,4 hPa 0,0 l/m 3,5 km/h (1 Bft) S-SW 202 12,3 C 19,3 C 0,0 km/h (0 Bft)
24.07.2013 01:15 18,7 C 67 % 1020,4 hPa 0,0 l/m 1,4 km/h (1 Bft) S-SO 157 12,4 C 19,2 C 0,0 km/h (0 Bft)
24.07.2013 01:20 18,6 C 67 % 1020,4 hPa 0,0 l/m 0,6 km/h (0 Bft) S-SW 202 12,3 C 19,0 C 0,0 km/h (0 Bft)
24.07.2013 01:25 18,7 C 66 % 1020,2 hPa 0,0 l/m 1,0 km/h (0 Bft) W 270 12,2 C 18,8 C 0,0 km/h (0 Bft)
24.07.2013 01:30 18,6 C 65 % 1020,2 hPa 0,0 l/m 1,1 km/h (1 Bft) NO 45 11,9 C 18,7 C 1,9 km/h (1 Bft)
24.07.2013 01:35 18,5 C 64 % 1020,2 hPa 0,0 l/m 1,1 km/h (1 Bft) O 90 11,6 C 18,6 C 0,0 km/h (0 Bft)
24.07.2013 01:40 18,4 C 64 % 1020,2 hPa 0,0 l/m 1,0 km/h (0 Bft) O-NO 67 11,5 C 18,5 C 0,0 km/h (0 Bft)
24.07.2013 01:45 18,4 C 64 % 1019,8 hPa 0,0 l/m 0,8 km/h (0 Bft) O-NO 67 11,5 C 18,4 C 1,9 km/h (1 Bft)
24.07.2013 01:50 18,3 C 65 % 1019,8 hPa 0,0 l/m 0,6 km/h (0 Bft) NO 45 11,6 C 18,3 C 0,0 km/h (0 Bft)
24.07.2013 01:55 18,1 C 66 % 1019,8 hPa 0,0 l/m 0,6 km/h (0 Bft) NO 45 11,6 C 18,2 C 0,0 km/h (0 Bft)
24.07.2013 02:00 18,1 C 66 % 1019,8 hPa 0,0 l/m 0,3 km/h (0 Bft) NO 45 11,6 C 18,1 C 2,1 km/h (1 Bft)
24.07.2013 02:05 18,2 C 65 % 1019,7 hPa 0,0 l/m 1,0 km/h (0 Bft) NO 45 11,5 C 18,1 C 1,9 km/h (1 Bft)
24.07.2013 02:10 18,2 C 66 % 1019,7 hPa 0,0 l/m 1,4 km/h (1 Bft) O 90 11,7 C 18,0 C 1,8 km/h (1 Bft)
24.07.2013 02:15 18,1 C 66 % 1019,7 hPa 0,0 l/m 0,8 km/h (0 Bft) NO 45 11,6 C 18,0 C 0,0 km/h (0 Bft)
24.07.2013 02:20 18,0 C 67 % 1019,7 hPa 0,0 l/m 0,3 km/h (0 Bft) O 90 11,8 C 17,9 C 0,0 km/h (0 Bft)
24.07.2013 02:25 17,8 C 68 % 1019,5 hPa 0,0 l/m 0,2 km/h (0 Bft) O 90 11,8 C 17,8 C 0,0 km/h (0 Bft)
24.07.2013 02:30 17,7 C 69 % 1019,5 hPa 0,0 l/m 0,0 km/h (0 Bft) N-NO 22 11,9 C 17,8 C 0,0 km/h (0 Bft)
24.07.2013 02:35 17,7 C 69 % 1019,5 hPa 0,0 l/m 0,0 km/h (0 Bft) NO 45 11,9 C 17,6 C 0,0 km/h (0 Bft)
24.07.2013 02:40 17,4 C 71 % 1019,5 hPa 0,0 l/m 0,0 km/h (0 Bft) N 360 12,1 C 17,5 C 0,0 km/h (0 Bft)
24.07.2013 02:45 17,4 C 70 % 1019,2 hPa 0,0 l/m 0,0 km/h (0 Bft) N 360 11,9 C 17,4 C 0,0 km/h (0 Bft)
24.07.2013 02:50 17,5 C 69 % 1019,2 hPa 0,0 l/m 0,2 km/h (0 Bft) N 360 11,7 C 17,3 C 1,8 km/h (1 Bft)
24.07.2013 02:55 17,6 C 69 % 1019,2 hPa 0,0 l/m 0,3 km/h (0 Bft) N 360 11,8 C 17,4 C 0,0 km/h (0 Bft)
24.07.2013 03:00 17,5 C 69 % 1019,2 hPa 0,0 l/m 0,2 km/h (0 Bft) NO 45 11,7 C 17,4 C 0,0 km/h (0 Bft)
24.07.2013 03:05 17,7 C 69 % 1019,1 hPa 0,0 l/m 0,5 km/h (0 Bft) O-NO 67 11,9 C 17,4 C 2,6 km/h (1 Bft)
24.07.2013 03:10 17,6 C 69 % 1019,1 hPa 0,0 l/m 1,0 km/h (0 Bft) NO 45 11,8 C 17,6 C 0,0 km/h (0 Bft)
24.07.2013 03:15 17,5 C 69 % 1019,1 hPa 0,0 l/m 0,6 km/h (0 Bft) NO 45 11,7 C 17,5 C 0,0 km/h (0 Bft)
24.07.2013 03:20 17,4 C 70 % 1019,1 hPa 0,0 l/m 0,0 km/h (0 Bft) O-NO 67 11,9 C 17,4 C 0,0 km/h (0 Bft)
24.07.2013 03:25 17,3 C 70 % 1019,2 hPa 0,0 l/m 0,0 km/h (0 Bft) O 90 11,8 C 17,3 C 0,0 km/h (0 Bft)
24.07.2013 03:30 17,3 C 70 % 1019,2 hPa 0,0 l/m 0,0 km/h (0 Bft) NO 45 11,8 C 17,3 C 0,0 km/h (0 Bft)
24.07.2013 03:35 17,3 C 70 % 1019,2 hPa 0,0 l/m 0,0 km/h (0 Bft) O-NO 67 11,8 C 17,3 C 0,0 km/h (0 Bft)
24.07.2013 03:40 17,2 C 70 % 1019,2 hPa 0,0 l/m 0,0 km/h (0 Bft) O-SO 112 11,7 C 17,3 C 0,0 km/h (0 Bft)
24.07.2013 03:45 17,2 C 70 % 1018,8 hPa 0,0 l/m 0,0 km/h (0 Bft) O-SO 112 11,7 C 17,3 C 0,0 km/h (0 Bft)
24.07.2013 03:50 17,4 C 70 % 1018,8 hPa 0,0 l/m 0,0 km/h (0 Bft) O-SO 112 11,9 C 17,2 C 0,0 km/h (0 Bft)
24.07.2013 03:55 17,4 C 70 % 1018,8 hPa 0,0 l/m 0,0 km/h (0 Bft) O 90 11,9 C 17,2 C 0,0 km/h (0 Bft)
24.07.2013 04:00 17,5 C 70 % 1018,8 hPa 0,0 l/m 0,2 km/h (0 Bft) O 90 12,0 C 17,2 C 0,0 km/h (0 Bft)
24.07.2013 04:05 17,4 C 71 % 1018,8 hPa 0,0 l/m 0,2 km/h (0 Bft) W-SW 247 12,1 C 17,2 C 0,0 km/h (0 Bft)
24.07.2013 04:10 17,1 C 72 % 1018,8 hPa 0,0 l/m 0,0 km/h (0 Bft) W-SW 247 12,0 C 17,1 C 0,0 km/h (0 Bft)
24.07.2013 04:15 17,0 C 72 % 1018,8 hPa 0,0 l/m 0,0 km/h (0 Bft) S-SW 202 11,9 C 17,1 C 0,0 km/h (0 Bft)
24.07.2013 04:20 16,9 C 72 % 1018,8 hPa 0,0 l/m 0,0 km/h (0 Bft) S 180 11,8 C 16,9 C 0,0 km/h (0 Bft)
24.07.2013 04:25 16,9 C 72 % 1018,9 hPa 0,0 l/m 0,0 km/h (0 Bft) W 270 11,8 C 16,9 C 0,0 km/h (0 Bft)
24.07.2013 04:30 16,9 C 72 % 1018,9 hPa 0,0 l/m 0,2 km/h (0 Bft) SO 135 11,8 C 16,8 C 0,0 km/h (0 Bft)
24.07.2013 04:35 17,1 C 72 % 1018,9 hPa 0,0 l/m 0,2 km/h (0 Bft) SO 135 12,0 C 16,9 C 0,0 km/h (0 Bft)
24.07.2013 04:40 17,1 C 72 % 1018,9 hPa 0,0 l/m 0,3 km/h (0 Bft) S 180 12,0 C 16,9 C 1,6 km/h (1 Bft)
24.07.2013 04:45 17,1 C 72 % 1019,0 hPa 0,0 l/m 0,8 km/h (0 Bft) SO 135 12,0 C 16,9 C 1,8 km/h (1 Bft)
24.07.2013 04:50 17,0 C 72 % 1019,0 hPa 0,0 l/m 1,1 km/h (1 Bft) O 90 11,9 C 16,9 C 0,0 km/h (0 Bft)
24.07.2013 04:55 16,9 C 72 % 1019,0 hPa 0,0 l/m 0,5 km/h (0 Bft) O 90 11,8 C 16,8 C 0,0 km/h (0 Bft)
24.07.2013 05:00 16,7 C 73 % 1019,0 hPa 0,0 l/m 0,0 km/h (0 Bft) O 90 11,8 C 16,6 C 0,0 km/h (0 Bft)
24.07.2013 05:05 16,5 C 73 % 1018,9 hPa 0,0 l/m 0,0 km/h (0 Bft) O-SO 112 11,6 C 16,5 C 0,0 km/h (0 Bft)
24.07.2013 05:10 16,4 C 73 % 1018,9 hPa 0,0 l/m 0,0 km/h (0 Bft) O-SO 112 11,5 C 16,3 C 0,0 km/h (0 Bft)
24.07.2013 05:15 16,2 C 74 % 1018,9 hPa 0,0 l/m 0,0 km/h (0 Bft) NO 45 11,6 C 16,1 C 0,0 km/h (0 Bft)
24.07.2013 05:20 15,9 C 75 % 1018,9 hPa 0,0 l/m 0,0 km/h (0 Bft) SO 135 11,5 C 15,9 C 0,0 km/h (0 Bft)
24.07.2013 05:25 15,9 C 75 % 1019,1 hPa 0,0 l/m 0,0 km/h (0 Bft) S-SO 157 11,5 C 15,8 C 0,0 km/h (0 Bft)
24.07.2013 05:30 15,9 C 75 % 1019,1 hPa 0,0 l/m 0,0 km/h (0 Bft) SO 135 11,5 C 15,8 C 0,0 km/h (0 Bft)
24.07.2013 05:35 15,9 C 76 % 1019,1 hPa 0,0 l/m 0,0 km/h (0 Bft) S 180 11,7 C 15,8 C 0,0 km/h (0 Bft)
24.07.2013 05:40 15,9 C 76 % 1019,1 hPa 0,0 l/m 0,3 km/h (0 Bft) S 180 11,7 C 16,0 C 0,0 km/h (0 Bft)
24.07.2013 05:45 16,1 C 76 % 1019,3 hPa 0,0 l/m 0,3 km/h (0 Bft) S 180 11,9 C 16,1 C 0,0 km/h (0 Bft)
24.07.2013 05:50 16,4 C 76 % 1019,3 hPa 0,0 l/m 0,3 km/h (0 Bft) NO 45 12,2 C 16,2 C 2,1 km/h (1 Bft)
24.07.2013 05:55 16,6 C 75 % 1019,3 hPa 0,0 l/m 0,8 km/h (0 Bft) O-NO 67 12,1 C 16,3 C 0,0 km/h (0 Bft)
24.07.2013 06:00 16,7 C 74 % 1019,3 hPa 0,0 l/m 0,6 km/h (0 Bft) O 90 12,0 C 16,5 C 0,0 km/h (0 Bft)
24.07.2013 06:05 16,6 C 74 % 1019,1 hPa 0,0 l/m 0,0 km/h (0 Bft) O 90 11,9 C 16,6 C 0,0 km/h (0 Bft)
24.07.2013 06:10 16,4 C 75 % 1019,1 hPa 0,0 l/m 0,0 km/h (0 Bft) SO 135 12,0 C 16,7 C 0,0 km/h (0 Bft)
24.07.2013 06:15 16,4 C 75 % 1019,1 hPa 0,0 l/m 0,0 km/h (0 Bft) O-SO 112 12,0 C 16,6 C 0,0 km/h (0 Bft)
24.07.2013 06:20 16,7 C 74 % 1019,1 hPa 0,0 l/m 0,0 km/h (0 Bft) O-SO 112 12,0 C 16,7 C 0,0 km/h (0 Bft)
24.07.2013 06:25 16,7 C 75 % 1019,3 hPa 0,0 l/m 0,0 km/h (0 Bft) W-SW 247 12,2 C 16,8 C 0,0 km/h (0 Bft)
24.07.2013 06:30 16,5 C 76 % 1019,3 hPa 0,0 l/m 0,0 km/h (0 Bft) W-SW 247 12,3 C 16,8 C 0,0 km/h (0 Bft)
24.07.2013 06:35 16,6 C 76 % 1019,3 hPa 0,0 l/m 0,0 km/h (0 Bft) N 360 12,3 C 16,7 C 0,0 km/h (0 Bft)
24.07.2013 06:40 16,8 C 76 % 1019,3 hPa 0,0 l/m 0,2 km/h (0 Bft) N-NW 337 12,5 C 16,8 C 1,8 km/h (1 Bft)
24.07.2013 06:45 16,9 C 75 % 1019,4 hPa 0,0 l/m 0,2 km/h (0 Bft) N-NW 337 12,4 C 16,9 C 0,0 km/h (0 Bft)
24.07.2013 06:50 17,2 C 74 % 1019,4 hPa 0,0 l/m 0,2 km/h (0 Bft) N 360 12,5 C 17,1 C 0,0 km/h (0 Bft)
24.07.2013 06:55 17,6 C 73 % 1019,4 hPa 0,0 l/m 0,0 km/h (0 Bft) N 360 12,7 C 17,4 C 0,0 km/h (0 Bft)
24.07.2013 07:00 18,5 C 73 % 1019,4 hPa 0,0 l/m 0,2 km/h (0 Bft) N 360 13,6 C 18,1 C 0,0 km/h (0 Bft)
24.07.2013 07:05 18,6 C 72 % 1019,6 hPa 0,0 l/m 0,5 km/h (0 Bft) S 180 13,4 C 18,5 C 2,1 km/h (1 Bft)
24.07.2013 07:10 19,2 C 70 % 1019,6 hPa 0,0 l/m 0,3 km/h (0 Bft) SO 135 13,6 C 19,2 C 0,0 km/h (0 Bft)
24.07.2013 07:15 18,5 C 72 % 1019,6 hPa 0,0 l/m 0,3 km/h (0 Bft) SO 135 13,4 C 19,5 C 0,0 km/h (0 Bft)
24.07.2013 07:20 18,5 C 72 % 1019,6 hPa 0,0 l/m 0,0 km/h (0 Bft) SO 135 13,4 C 19,3 C 0,0 km/h (0 Bft)
24.07.2013 07:25 19,4 C 71 % 1019,7 hPa 0,0 l/m 0,0 km/h (0 Bft) SO 135 14,0 C 19,4 C 0,0 km/h (0 Bft)
24.07.2013 07:30 19,0 C 70 % 1019,7 hPa 0,0 l/m 0,2 km/h (0 Bft) SO 135 13,4 C 19,7 C 1,8 km/h (1 Bft)
24.07.2013 07:35 19,1 C 70 % 1019,7 hPa 0,0 l/m 0,2 km/h (0 Bft) SO 135 13,5 C 19,8 C 0,0 km/h (0 Bft)
24.07.2013 07:40 19,2 C 70 % 1019,7 hPa 0,0 l/m 0,2 km/h (0 Bft) SW 225 13,6 C 20,0 C 0,0 km/h (0 Bft)
24.07.2013 07:45 19,1 C 72 % 1019,9 hPa 0,0 l/m 0,0 km/h (0 Bft) NO 45 13,9 C 20,0 C 0,0 km/h (0 Bft)
24.07.2013 07:50 19,3 C 70 % 1019,9 hPa 0,0 l/m 0,0 km/h (0 Bft) NO 45 13,7 C 20,1 C 0,0 km/h (0 Bft)
24.07.2013 07:55 19,5 C 70 % 1019,9 hPa 0,0 l/m 0,0 km/h (0 Bft) NO 45 13,9 C 20,3 C 0,0 km/h (0 Bft)
24.07.2013 08:00 19,6 C 70 % 1019,9 hPa 0,0 l/m 0,0 km/h (0 Bft) O 90 14,0 C 20,5 C 0,0 km/h (0 Bft)
24.07.2013 08:05 19,7 C 69 % 1020,0 hPa 0,0 l/m 0,0 km/h (0 Bft) W 270 13,8 C 20,7 C 0,0 km/h (0 Bft)
24.07.2013 08:10 22,3 C 68 % 1020,0 hPa 0,0 l/m 0,0 km/h (0 Bft) W 270 16,1 C 21,1 C 0,0 km/h (0 Bft)
24.07.2013 08:15 22,5 C 65 % 1020,0 hPa 0,0 l/m 0,0 km/h (0 Bft) W-SW 247 15,6 C 22,5 C 0,0 km/h (0 Bft)
24.07.2013 08:20 21,2 C 66 % 1020,0 hPa 0,0 l/m 0,3 km/h (0 Bft) S 180 14,6 C 22,5 C 0,0 km/h (0 Bft)
24.07.2013 08:25 21,1 C 66 % 1020,2 hPa 0,0 l/m 0,3 km/h (0 Bft) S 180 14,5 C 22,3 C 0,0 km/h (0 Bft)
24.07.2013 08:30 20,6 C 69 % 1020,2 hPa 0,0 l/m 0,0 km/h (0 Bft) NO 45 14,7 C 22,3 C 0,0 km/h (0 Bft)
24.07.2013 08:35 20,8 C 68 % 1020,2 hPa 0,0 l/m 0,0 km/h (0 Bft) N-NO 22 14,7 C 22,5 C 0,0 km/h (0 Bft)
24.07.2013 08:40 21,3 C 67 % 1020,2 hPa 0,0 l/m 0,5 km/h (0 Bft) S-SW 202 14,9 C 22,5 C 2,4 km/h (1 Bft)
24.07.2013 08:45 21,3 C 66 % 1020,4 hPa 0,0 l/m 1,0 km/h (0 Bft) N-NW 337 14,7 C 22,3 C 0,0 km/h (0 Bft)
24.07.2013 08:50 21,9 C 64 % 1020,4 hPa 0,0 l/m 0,6 km/h (0 Bft) W-SW 247 14,8 C 22,5 C 0,0 km/h (0 Bft)
24.07.2013 08:55 24,3 C 61 % 1020,4 hPa 0,0 l/m 0,5 km/h (0 Bft) S-SW 202 16,3 C 22,8 C 3,1 km/h (1 Bft)
24.07.2013 09:00 25,3 C 53 % 1020,4 hPa 0,0 l/m 1,6 km/h (1 Bft) S-SW 202 15,0 C 25,0 C 2,7 km/h (1 Bft)
24.07.2013 09:05 23,6 C 56 % 1020,7 hPa 0,0 l/m 2,6 km/h (1 Bft) W-SW 247 14,3 C 24,7 C 0,0 km/h (0 Bft)
24.07.2013 09:10 26,1 C 49 % 1020,7 hPa 0,0 l/m 3,1 km/h (1 Bft) W-SW 247 14,5 C 25,4 C 5,8 km/h (2 Bft)
24.07.2013 09:15 27,2 C 49 % 1020,7 hPa 0,0 l/m 3,2 km/h (1 Bft) W-SW 247 15,5 C 26,1 C 4,5 km/h (1 Bft)
24.07.2013 09:20 25,7 C 49 % 1020,7 hPa 0,0 l/m 3,7 km/h (1 Bft) SO 135 14,2 C 26,7 C 6,6 km/h (2 Bft)
24.07.2013 09:25 26,1 C 48 % 1021,0 hPa 0,0 l/m 4,2 km/h (1 Bft) S 180 14,2 C 25,7 C 7,9 km/h (2 Bft)
24.07.2013 09:30 27,3 C 46 % 1021,0 hPa 0,0 l/m 5,1 km/h (1 Bft) S 180 14,6 C 26,3 C 8,7 km/h (2 Bft)
24.07.2013 09:35 27,9 C 44 % 1021,0 hPa 0,0 l/m 5,1 km/h (1 Bft) S 180 14,5 C 26,6 C 5,5 km/h (1 Bft)
24.07.2013 09:40 26,8 C 44 % 1021,0 hPa 0,0 l/m 5,1 km/h (1 Bft) S-SO 157 13,5 C 27,4 C 9,3 km/h (2 Bft)
24.07.2013 09:45 24,6 C 48 % 1021,4 hPa 0,0 l/m 5,3 km/h (1 Bft) S 180 12,8 C 26,3 C 2,6 km/h (1 Bft)
24.07.2013 09:50 24,2 C 51 % 1021,4 hPa 0,0 l/m 4,2 km/h (1 Bft) W-SW 247 13,4 C 25,1 C 3,9 km/h (1 Bft)
24.07.2013 09:55 25,9 C 49 % 1021,4 hPa 0,0 l/m 2,7 km/h (1 Bft) W-SW 247 14,4 C 25,0 C 0,0 km/h (0 Bft)
24.07.2013 10:00 26,9 C 42 % 1021,4 hPa 0,0 l/m 3,4 km/h (1 Bft) S 180 12,9 C 26,6 C 5,1 km/h (1 Bft)
24.07.2013 10:05 27,8 C 41 % 1021,8 hPa 0,0 l/m 3,5 km/h (1 Bft) S-SW 202 13,3 C 26,9 C 3,1 km/h (1 Bft)
24.07.2013 10:10 28,2 C 40 % 1021,8 hPa 0,0 l/m 3,9 km/h (1 Bft) S-SW 202 13,3 C 27,8 C 2,9 km/h (1 Bft)
24.07.2013 10:15 28,1 C 40 % 1021,8 hPa 0,0 l/m 4,0 km/h (1 Bft) S 180 13,2 C 28,2 C 4,7 km/h (1 Bft)
24.07.2013 10:20 28,1 C 40 % 1021,8 hPa 0,0 l/m 4,0 km/h (1 Bft) W-SW 247 13,2 C 28,4 C 3,4 km/h (1 Bft)
24.07.2013 10:25 28,7 C 39 % 1023,4 hPa 0,0 l/m 3,9 km/h (1 Bft) S 180 13,4 C 28,8 C 3,7 km/h (1 Bft)
24.07.2013 10:30 28,4 C 37 % 1023,4 hPa 0,0 l/m 4,8 km/h (1 Bft) SW 225 12,3 C 28,7 C 7,7 km/h (2 Bft)
24.07.2013 10:35 28,3 C 38 % 1023,4 hPa 0,0 l/m 6,0 km/h (2 Bft) S 180 12,6 C 28,5 C 9,0 km/h (2 Bft)
24.07.2013 10:40 27,7 C 38 % 1023,4 hPa 0,0 l/m 6,6 km/h (2 Bft) S 180 12,1 C 28,2 C 6,3 km/h (2 Bft)
24.07.2013 10:45 27,6 C 39 % 1023,4 hPa 0,0 l/m 7,1 km/h (2 Bft) W-SW 247 12,4 C 27,8 C 7,2 km/h (2 Bft)
24.07.2013 10:50 28,0 C 38 % 1023,4 hPa 0,0 l/m 6,6 km/h (2 Bft) S 180 12,3 C 28,1 C 10,8 km/h (2 Bft)
24.07.2013 10:55 27,9 C 39 % 1023,4 hPa 0,0 l/m 6,4 km/h (2 Bft) W-SW 247 12,6 C 28,1 C 9,8 km/h (2 Bft)
24.07.2013 11:00 28,1 C 39 % 1023,4 hPa 0,0 l/m 6,3 km/h (2 Bft) W-SW 247 12,8 C 28,0 C 6,6 km/h (2 Bft)
24.07.2013 11:05 28,1 C 39 % 1023,1 hPa 0,0 l/m 6,3 km/h (2 Bft) S-SW 202 12,8 C 28,1 C 9,0 km/h (2 Bft)
24.07.2013 11:10 28,2 C 39 % 1023,1 hPa 0,0 l/m 7,6 km/h (2 Bft) S 180 12,9 C 27,6 C 8,9 km/h (2 Bft)
24.07.2013 11:15 28,2 C 39 % 1023,1 hPa 0,0 l/m 7,7 km/h (2 Bft) S-SW 202 12,9 C 27,7 C 7,9 km/h (2 Bft)
24.07.2013 11:20 28,5 C 39 % 1023,1 hPa 0,0 l/m 6,0 km/h (2 Bft) S-SW 202 13,2 C 28,0 C 3,9 km/h (1 Bft)
24.07.2013 11:25 28,7 C 38 % 1023,6 hPa 0,0 l/m 5,5 km/h (1 Bft) S-SW 202 13,0 C 28,4 C 7,4 km/h (2 Bft)
24.07.2013 11:30 29,1 C 40 % 1023,6 hPa 0,0 l/m 4,7 km/h (1 Bft) W 270 14,1 C 28,9 C 15,0 km/h (3 Bft)
24.07.2013 11:35 29,2 C 39 % 1023,6 hPa 0,0 l/m 6,0 km/h (2 Bft) W-SW 247 13,8 C 28,9 C 11,3 km/h (2 Bft)
24.07.2013 11:40 28,6 C 38 % 1023,6 hPa 0,0 l/m 6,6 km/h (2 Bft) S 180 12,9 C 28,7 C 5,5 km/h (1 Bft)
24.07.2013 11:45 29,0 C 39 % 1022,8 hPa 0,0 l/m 6,4 km/h (2 Bft) S 180 13,6 C 28,8 C 9,5 km/h (2 Bft)
24.07.2013 11:50 29,1 C 39 % 1022,8 hPa 0,0 l/m 5,8 km/h (2 Bft) W-SW 247 13,7 C 28,6 C 8,2 km/h (2 Bft)
24.07.2013 11:55 29,5 C 40 % 1022,8 hPa 0,0 l/m 5,8 km/h (2 Bft) S-SW 202 14,5 C 28,6 C 7,4 km/h (2 Bft)
24.07.2013 12:00 29,1 C 40 % 1022,8 hPa 0,0 l/m 6,4 km/h (2 Bft) W-SW 247 14,1 C 28,5 C 10,8 km/h (2 Bft)
24.07.2013 12:05 29,1 C 39 % 1021,9 hPa 0,0 l/m 6,8 km/h (2 Bft) SW 225 13,7 C 28,3 C 6,1 km/h (2 Bft)
24.07.2013 12:10 29,2 C 40 % 1021,9 hPa 0,0 l/m 6,4 km/h (2 Bft) S-SW 202 14,2 C 28,6 C 5,3 km/h (1 Bft)
24.07.2013 12:15 29,1 C 42 % 1021,9 hPa 0,0 l/m 6,3 km/h (2 Bft) W 270 14,9 C 28,7 C 6,0 km/h (2 Bft)
24.07.2013 12:20 29,0 C 41 % 1021,9 hPa 0,0 l/m 6,1 km/h (2 Bft) S-SW 202 14,4 C 29,1 C 7,6 km/h (2 Bft)
24.07.2013 12:25 29,0 C 38 % 1021,3 hPa 0,0 l/m 5,5 km/h (1 Bft) S 180 13,2 C 29,3 C 5,5 km/h (1 Bft)
24.07.2013 12:30 28,8 C 40 % 1021,3 hPa 0,0 l/m 5,1 km/h (1 Bft) W-SW 247 13,8 C 29,3 C 0,0 km/h (0 Bft)
24.07.2013 12:35 29,3 C 39 % 1021,3 hPa 0,0 l/m 4,2 km/h (1 Bft) W 270 13,9 C 29,8 C 3,5 km/h (1 Bft)
24.07.2013 12:40 29,6 C 40 % 1021,3 hPa 0,0 l/m 3,5 km/h (1 Bft) W-SW 247 14,5 C 30,2 C 5,6 km/h (1 Bft)
24.07.2013 12:45 29,6 C 40 % 1021,0 hPa 0,0 l/m 4,3 km/h (1 Bft) S-SW 202 14,5 C 30,3 C 5,5 km/h (1 Bft)
24.07.2013 12:50 29,2 C 40 % 1021,0 hPa 0,0 l/m 4,7 km/h (1 Bft) W-SW 247 14,2 C 30,2 C 5,5 km/h (1 Bft)
24.07.2013 12:55 29,0 C 39 % 1021,0 hPa 0,0 l/m 5,3 km/h (1 Bft) SW 225 13,6 C 30,1 C 6,6 km/h (2 Bft)
24.07.2013 13:00 29,2 C 39 % 1021,0 hPa 0,0 l/m 5,6 km/h (1 Bft) W 270 13,8 C 29,7 C 6,6 km/h (2 Bft)
24.07.2013 13:05 29,4 C 39 % 1020,9 hPa 0,0 l/m 5,3 km/h (1 Bft) W-SW 247 14,0 C 29,7 C 4,3 km/h (1 Bft)
24.07.2013 13:10 28,8 C 40 % 1020,9 hPa 0,0 l/m 5,3 km/h (1 Bft) W-SW 247 13,8 C 29,8 C 7,2 km/h (2 Bft)
24.07.2013 13:15 28,6 C 38 % 1020,9 hPa 0,0 l/m 4,7 km/h (1 Bft) N-NW 337 12,9 C 30,1 C 3,4 km/h (1 Bft)
24.07.2013 13:20 28,5 C 42 % 1020,9 hPa 0,0 l/m 3,9 km/h (1 Bft) S-SW 202 14,3 C 29,6 C 7,2 km/h (2 Bft)
24.07.2013 13:25 28,2 C 39 % 1021,0 hPa 0,0 l/m 3,7 km/h (1 Bft) W-SW 247 12,9 C 29,7 C 3,7 km/h (1 Bft)
24.07.2013 13:30 26,8 C 44 % 1021,0 hPa 0,0 l/m 3,4 km/h (1 Bft) S 180 13,5 C 28,6 C 0,0 km/h (0 Bft)
24.07.2013 13:35 28,7 C 45 % 1021,0 hPa 0,0 l/m 2,6 km/h (1 Bft) S-SO 157 15,6 C 28,9 C 4,5 km/h (1 Bft)
24.07.2013 13:40 27,5 C 41 % 1021,0 hPa 0,0 l/m 3,2 km/h (1 Bft) W 270 13,1 C 29,6 C 3,9 km/h (1 Bft)
24.07.2013 13:45 28,2 C 41 % 1020,8 hPa 0,0 l/m 4,2 km/h (1 Bft) S 180 13,7 C 29,1 C 8,9 km/h (2 Bft)
24.07.2013 13:50 29,9 C 38 % 1020,8 hPa 0,0 l/m 3,9 km/h (1 Bft) SO 135 14,0 C 30,1 C 4,8 km/h (1 Bft)
24.07.2013 13:55 30,3 C 37 % 1020,8 hPa 0,0 l/m 4,3 km/h (1 Bft) W-SW 247 14,0 C 30,9 C 5,8 km/h (2 Bft)
24.07.2013 14:00 29,9 C 36 % 1020,8 hPa 0,0 l/m 5,1 km/h (1 Bft) W-SW 247 13,2 C 31,5 C 5,8 km/h (2 Bft)
24.07.2013 14:05 29,1 C 38 % 1020,6 hPa 0,0 l/m 6,1 km/h (2 Bft) S-SW 202 13,3 C 31,5 C 9,3 km/h (2 Bft)
24.07.2013 14:10 27,5 C 40 % 1020,6 hPa 0,0 l/m 5,6 km/h (1 Bft) W-SW 247 12,7 C 30,1 C 6,9 km/h (2 Bft)
24.07.2013 14:15 27,2 C 44 % 1020,6 hPa 0,0 l/m 4,7 km/h (1 Bft) N-NO 22 13,9 C 29,3 C 9,5 km/h (2 Bft)
24.07.2013 14:20 26,8 C 43 % 1020,6 hPa 0,0 l/m 3,9 km/h (1 Bft) W-SW 247 13,2 C 28,6 C 2,3 km/h (1 Bft)
24.07.2013 14:25 26,7 C 43 % 1020,4 hPa 0,0 l/m 3,7 km/h (1 Bft) S-SW 202 13,1 C 28,3 C 4,7 km/h (1 Bft)
24.07.2013 14:30 26,0 C 46 % 1020,4 hPa 0,0 l/m 4,7 km/h (1 Bft) W 270 13,5 C 27,5 C 3,2 km/h (1 Bft)
24.07.2013 14:35 25,6 C 48 % 1020,4 hPa 0,0 l/m 5,0 km/h (1 Bft) S 180 13,8 C 27,0 C 4,5 km/h (1 Bft)
24.07.2013 14:40 24,7 C 53 % 1020,4 hPa 0,0 l/m 6,1 km/h (2 Bft) S 180 14,5 C 26,1 C 23,7 km/h (4 Bft)
24.07.2013 14:45 23,1 C 58 % 1020,6 hPa 0,0 l/m 9,0 km/h (2 Bft) S 180 14,4 C 24,3 C 19,0 km/h (3 Bft)
24.07.2013 14:50 21,2 C 70 % 1020,6 hPa 0,0 l/m 13,4 km/h (3 Bft) S 180 15,5 C 20,0 C 27,2 km/h (4 Bft)
24.07.2013 14:55 19,7 C 77 % 1020,6 hPa 0,0 l/m 13,4 km/h (3 Bft) S 180 15,5 C 17,6 C 18,2 km/h (3 Bft)
24.07.2013 15:00 18,3 C 83 % 1020,6 hPa 1,4 l/m 10,1 km/h (2 Bft) S 180 15,4 C 16,9 C 15,6 km/h (3 Bft)
24.07.2013 15:05 18,2 C 84 % 1021,0 hPa 0,7 l/m 8,0 km/h (2 Bft) O-SO 112 15,4 C 17,1 C 3,7 km/h (1 Bft)
24.07.2013 15:10 17,9 C 86 % 1021,0 hPa 0,7 l/m 4,3 km/h (1 Bft) O 90 15,5 C 17,8 C 5,0 km/h (1 Bft)
24.07.2013 15:15 17,9 C 86 % 1021,0 hPa 0,7 l/m 2,4 km/h (1 Bft) O 90 15,5 C 17,8 C 1,9 km/h (1 Bft)
24.07.2013 15:20 18,0 C 88 % 1021,0 hPa 0,0 l/m 1,6 km/h (1 Bft) W-SW 247 16,0 C 17,9 C 2,6 km/h (1 Bft)
24.07.2013 15:25 18,0 C 89 % 1020,6 hPa 0,0 l/m 1,4 km/h (1 Bft) SO 135 16,2 C 17,9 C 4,0 km/h (1 Bft)
24.07.2013 15:30 18,0 C 89 % 1020,6 hPa 0,0 l/m 1,3 km/h (1 Bft) N 360 16,2 C 17,9 C 0,0 km/h (0 Bft)
24.07.2013 15:35 18,0 C 89 % 1020,6 hPa 0,0 l/m 1,0 km/h (0 Bft) S 180 16,2 C 18,0 C 1,6 km/h (1 Bft)
24.07.2013 15:40 18,1 C 90 % 1020,6 hPa 0,0 l/m 0,8 km/h (0 Bft) O-SO 112 16,4 C 18,1 C 4,8 km/h (1 Bft)
24.07.2013 15:45 18,2 C 90 % 1020,9 hPa 0,0 l/m 0,8 km/h (0 Bft) O-SO 112 16,5 C 18,3 C 0,0 km/h (0 Bft)
24.07.2013 15:50 18,3 C 90 % 1020,9 hPa 0,0 l/m 1,0 km/h (0 Bft) N 360 16,6 C 18,6 C 3,5 km/h (1 Bft)
24.07.2013 15:55 18,2 C 90 % 1020,9 hPa 0,7 l/m 1,6 km/h (1 Bft) O-NO 67 16,5 C 18,6 C 2,3 km/h (1 Bft)
24.07.2013 16:00 18,5 C 90 % 1020,9 hPa 0,0 l/m 2,1 km/h (1 Bft) O 90 16,8 C 18,7 C 0,0 km/h (0 Bft)
24.07.2013 16:05 18,6 C 91 % 1021,1 hPa 0,0 l/m 1,0 km/h (0 Bft) O 90 17,1 C 18,9 C 1,6 km/h (1 Bft)
24.07.2013 16:10 18,8 C 91 % 1021,1 hPa 0,0 l/m 0,6 km/h (0 Bft) S-SO 157 17,3 C 18,9 C 2,6 km/h (1 Bft)
24.07.2013 16:15 18,8 C 91 % 1021,1 hPa 0,0 l/m 1,4 km/h (1 Bft) O-SO 112 17,3 C 18,8 C 2,1 km/h (1 Bft)
24.07.2013 16:20 18,4 C 91 % 1021,1 hPa 0,0 l/m 1,3 km/h (1 Bft) SO 135 16,9 C 18,7 C 0,0 km/h (0 Bft)
24.07.2013 16:25 18,5 C 91 % 1021,9 hPa 0,0 l/m 0,8 km/h (0 Bft) O 90 17,0 C 18,8 C 2,4 km/h (1 Bft)
24.07.2013 16:30 18,5 C 91 % 1021,9 hPa 0,0 l/m 0,6 km/h (0 Bft) O-NO 67 17,0 C 18,7 C 1,6 km/h (1 Bft)
24.07.2013 16:35 18,5 C 91 % 1021,9 hPa 0,0 l/m 0,6 km/h (0 Bft) N 360 17,0 C 18,8 C 1,6 km/h (1 Bft)
24.07.2013 16:40 18,5 C 91 % 1021,9 hPa 0,0 l/m 0,3 km/h (0 Bft) N-NW 337 17,0 C 18,9 C 1,8 km/h (1 Bft)
24.07.2013 16:45 18,5 C 91 % 1022,2 hPa 0,0 l/m 0,6 km/h (0 Bft) NO 45 17,0 C 19,0 C 0,0 km/h (0 Bft)
24.07.2013 16:50 18,7 C 91 % 1022,2 hPa 0,0 l/m 0,6 km/h (0 Bft) N-NO 22 17,2 C 19,2 C 0,0 km/h (0 Bft)
24.07.2013 16:55 18,7 C 91 % 1022,2 hPa 0,0 l/m 0,6 km/h (0 Bft) NO 45 17,2 C 19,4 C 1,9 km/h (1 Bft)
24.07.2013 17:00 18,9 C 91 % 1022,2 hPa 0,0 l/m 0,5 km/h (0 Bft) O 90 17,4 C 19,6 C 0,0 km/h (0 Bft)
24.07.2013 17:05 19,5 C 91 % 1021,8 hPa 0,0 l/m 0,3 km/h (0 Bft) NO 45 18,0 C 20,3 C 0,0 km/h (0 Bft)
24.07.2013 17:10 20,1 C 91 % 1021,8 hPa 0,0 l/m 0,6 km/h (0 Bft) O-SO 112 18,6 C 21,9 C 2,1 km/h (1 Bft)
24.07.2013 17:15 20,1 C 91 % 1021,8 hPa 0,0 l/m 1,0 km/h (0 Bft) N-NW 337 18,6 C 22,5 C 0,0 km/h (0 Bft)
24.07.2013 17:20 20,1 C 90 % 1021,8 hPa 0,0 l/m 1,1 km/h (1 Bft) SO 135 18,4 C 22,6 C 3,2 km/h (1 Bft)
24.07.2013 17:25 19,8 C 90 % 1021,5 hPa 0,0 l/m 0,8 km/h (0 Bft) SO 135 18,1 C 22,6 C 2,3 km/h (1 Bft)
24.07.2013 17:30 19,5 C 90 % 1021,5 hPa 0,0 l/m 1,1 km/h (1 Bft) SO 135 17,8 C 22,4 C 2,1 km/h (1 Bft)
24.07.2013 17:35 19,6 C 90 % 1021,5 hPa 0,0 l/m 1,6 km/h (1 Bft) O-SO 112 17,9 C 22,3 C 2,4 km/h (1 Bft)
24.07.2013 17:40 19,7 C 90 % 1021,5 hPa 0,0 l/m 1,4 km/h (1 Bft) O-SO 112 18,0 C 22,3 C 0,0 km/h (0 Bft)
24.07.2013 17:45 19,9 C 90 % 1021,8 hPa 0,0 l/m 1,1 km/h (1 Bft) O-NO 67 18,2 C 23,0 C 3,4 km/h (1 Bft)
24.07.2013 17:50 19,8 C 90 % 1021,8 hPa 0,0 l/m 1,3 km/h (1 Bft) NO 45 18,1 C 22,7 C 0,0 km/h (0 Bft)
24.07.2013 17:55 19,5 C 90 % 1021,8 hPa 0,0 l/m 1,1 km/h (1 Bft) S-SO 157 17,8 C 22,1 C 0,0 km/h (0 Bft)
24.07.2013 18:00 19,3 C 89 % 1021,8 hPa 0,0 l/m 0,8 km/h (0 Bft) O 90 17,4 C 21,7 C 0,0 km/h (0 Bft)
24.07.2013 18:05 19,3 C 89 % 1021,7 hPa 0,0 l/m 0,8 km/h (0 Bft) NO 45 17,4 C 21,5 C 1,6 km/h (1 Bft)
24.07.2013 18:10 19,0 C 89 % 1021,7 hPa 0,0 l/m 0,8 km/h (0 Bft) O 90 17,1 C 21,0 C 3,4 km/h (1 Bft)
24.07.2013 18:15 18,7 C 90 % 1021,7 hPa 0,0 l/m 1,1 km/h (1 Bft) O-SO 112 17,0 C 20,5 C 0,0 km/h (0 Bft)
24.07.2013 18:20 18,5 C 90 % 1021,7 hPa 0,0 l/m 1,8 km/h (1 Bft) O-NO 67 16,8 C 19,9 C 2,4 km/h (1 Bft)
24.07.2013 18:25 18,4 C 90 % 1021,5 hPa 0,0 l/m 1,8 km/h (1 Bft) O-NO 67 16,7 C 19,7 C 2,3 km/h (1 Bft)
24.07.2013 18:30 18,5 C 90 % 1021,5 hPa 0,0 l/m 1,0 km/h (0 Bft) NO 45 16,8 C 19,5 C 0,0 km/h (0 Bft)
24.07.2013 18:35 18,5 C 90 % 1021,5 hPa 0,0 l/m 0,6 km/h (0 Bft) O-NO 67 16,8 C 19,5 C 0,0 km/h (0 Bft)
24.07.2013 18:40 18,6 C 90 % 1021,5 hPa 0,0 l/m 0,8 km/h (0 Bft) N-NO 22 16,9 C 20,0 C 0,0 km/h (0 Bft)
24.07.2013 18:45 18,6 C 90 % 1021,6 hPa 0,0 l/m 0,6 km/h (0 Bft) NO 45 16,9 C 20,2 C 0,0 km/h (0 Bft)
24.07.2013 18:50 18,7 C 90 % 1021,6 hPa 0,0 l/m 0,3 km/h (0 Bft) N 360 17,0 C 20,4 C 0,0 km/h (0 Bft)
24.07.2013 18:55 19,1 C 90 % 1021,6 hPa 0,0 l/m 0,2 km/h (0 Bft) S 180 17,4 C 21,2 C 0,0 km/h (0 Bft)
24.07.2013 19:00 19,6 C 90 % 1021,6 hPa 0,0 l/m 1,0 km/h (0 Bft) N 360 17,9 C 23,9 C 2,6 km/h (1 Bft)
24.07.2013 19:05 19,6 C 90 % 1021,6 hPa 0,0 l/m 1,6 km/h (1 Bft) S 180 17,9 C 23,7 C 3,7 km/h (1 Bft)
24.07.2013 19:10 19,4 C 89 % 1021,6 hPa 0,0 l/m 1,8 km/h (1 Bft) W-SW 247 17,5 C 22,7 C 2,7 km/h (1 Bft)
24.07.2013 19:15 19,2 C 89 % 1021,6 hPa 0,0 l/m 1,3 km/h (1 Bft) SO 135 17,3 C 22,3 C 2,7 km/h (1 Bft)
24.07.2013 19:20 19,0 C 89 % 1021,6 hPa 0,0 l/m 1,0 km/h (0 Bft) N-NO 22 17,1 C 21,7 C 4,3 km/h (1 Bft)
24.07.2013 19:25 18,8 C 89 % 1021,6 hPa 0,0 l/m 1,1 km/h (1 Bft) S-SW 202 16,9 C 21,3 C 3,1 km/h (1 Bft)
24.07.2013 19:30 18,4 C 89 % 1021,6 hPa 0,0 l/m 1,1 km/h (1 Bft) S 180 16,6 C 20,6 C 3,4 km/h (1 Bft)
24.07.2013 19:35 18,2 C 89 % 1021,6 hPa 0,0 l/m 1,4 km/h (1 Bft) NO 45 16,4 C 20,1 C 3,4 km/h (1 Bft)
24.07.2013 19:40 18,1 C 89 % 1021,6 hPa 0,0 l/m 2,6 km/h (1 Bft) O-NO 67 16,3 C 19,5 C 1,9 km/h (1 Bft)
24.07.2013 19:45 18,0 C 89 % 1021,1 hPa 0,0 l/m 1,9 km/h (1 Bft) SW 225 16,2 C 19,2 C 0,0 km/h (0 Bft)
24.07.2013 19:50 17,9 C 90 % 1021,1 hPa 0,0 l/m 0,8 km/h (0 Bft) S 180 16,2 C 18,9 C 2,7 km/h (1 Bft)
24.07.2013 19:55 17,8 C 90 % 1021,1 hPa 0,0 l/m 0,8 km/h (0 Bft) O-SO 112 16,1 C 18,5 C 0,0 km/h (0 Bft)
24.07.2013 20:00 17,7 C 90 % 1021,1 hPa 0,0 l/m 1,3 km/h (1 Bft) NO 45 16,0 C 18,1 C 5,0 km/h (1 Bft)
24.07.2013 20:05 17,6 C 90 % 1020,8 hPa 0,0 l/m 1,6 km/h (1 Bft) NO 45 15,9 C 18,1 C 2,7 km/h (1 Bft)
24.07.2013 20:10 17,5 C 90 % 1020,8 hPa 0,0 l/m 1,9 km/h (1 Bft) NO 45 15,8 C 18,1 C 2,6 km/h (1 Bft)
24.07.2013 20:15 17,6 C 90 % 1020,8 hPa 0,0 l/m 1,6 km/h (1 Bft) NO 45 15,9 C 18,1 C 0,0 km/h (0 Bft)
24.07.2013 20:20 17,6 C 90 % 1020,8 hPa 0,0 l/m 0,8 km/h (0 Bft) NO 45 15,9 C 18,1 C 0,0 km/h (0 Bft)
24.07.2013 20:25 17,7 C 90 % 1020,9 hPa 0,0 l/m 0,5 km/h (0 Bft) NO 45 16,0 C 18,4 C 1,9 km/h (1 Bft)
24.07.2013 20:30 17,8 C 91 % 1020,9 hPa 0,0 l/m 0,3 km/h (0 Bft) O-NO 67 16,3 C 19,6 C 0,0 km/h (0 Bft)
24.07.2013 20:35 17,8 C 91 % 1020,9 hPa 0,0 l/m 0,3 km/h (0 Bft) N-NO 22 16,3 C 20,3 C 0,0 km/h (0 Bft)
24.07.2013 20:40 17,7 C 91 % 1020,9 hPa 0,0 l/m 0,5 km/h (0 Bft) O-NO 67 16,2 C 20,5 C 1,8 km/h (1 Bft)
24.07.2013 20:45 17,6 C 91 % 1020,9 hPa 0,0 l/m 0,5 km/h (0 Bft) N-NW 337 16,1 C 20,2 C 0,0 km/h (0 Bft)
24.07.2013 20:50 17,5 C 91 % 1020,9 hPa 0,0 l/m 0,2 km/h (0 Bft) O-SO 112 16,0 C 19,8 C 0,0 km/h (0 Bft)
24.07.2013 20:55 17,4 C 91 % 1020,9 hPa 0,0 l/m 0,3 km/h (0 Bft) NO 45 15,9 C 19,4 C 0,0 km/h (0 Bft)
24.07.2013 21:00 17,3 C 91 % 1020,9 hPa 0,0 l/m 0,3 km/h (0 Bft) W-SW 247 15,8 C 18,7 C 2,1 km/h (1 Bft)
24.07.2013 21:05 17,2 C 91 % 1021,2 hPa 0,0 l/m 0,5 km/h (0 Bft) S 180 15,7 C 18,4 C 0,0 km/h (0 Bft)
24.07.2013 21:10 17,0 C 91 % 1021,2 hPa 0,0 l/m 0,3 km/h (0 Bft) O-SO 112 15,5 C 17,7 C 1,8 km/h (1 Bft)
24.07.2013 21:15 16,8 C 91 % 1021,2 hPa 0,0 l/m 0,2 km/h (0 Bft) SO 135 15,3 C 17,4 C 0,0 km/h (0 Bft)
24.07.2013 21:20 16,7 C 92 % 1021,2 hPa 0,0 l/m 0,0 km/h (0 Bft) O 90 15,4 C 16,9 C 0,0 km/h (0 Bft)
24.07.2013 21:25 16,5 C 91 % 1021,3 hPa 0,0 l/m 0,0 km/h (0 Bft) NO 45 15,0 C 16,6 C 1,8 km/h (1 Bft)
24.07.2013 21:30 16,4 C 92 % 1021,3 hPa 0,0 l/m 0,2 km/h (0 Bft) NO 45 15,1 C 16,3 C 0,0 km/h (0 Bft)
24.07.2013 21:35 16,2 C 92 % 1021,3 hPa 0,0 l/m 0,2 km/h (0 Bft) O-NO 67 14,9 C 16,2 C 0,0 km/h (0 Bft)
24.07.2013 21:40 16,2 C 92 % 1021,3 hPa 0,0 l/m 0,0 km/h (0 Bft) NO 45 14,9 C 16,1 C 0,0 km/h (0 Bft)
24.07.2013 21:45 16,2 C 92 % 1021,5 hPa 0,0 l/m 0,0 km/h (0 Bft) NO 45 14,9 C 16,0 C 0,0 km/h (0 Bft)
24.07.2013 21:50 16,1 C 92 % 1021,5 hPa 0,0 l/m 0,0 km/h (0 Bft) O-NO 67 14,8 C 15,9 C 0,0 km/h (0 Bft)
24.07.2013 21:55 16,1 C 92 % 1021,5 hPa 0,0 l/m 0,0 km/h (0 Bft) NO 45 14,8 C 15,9 C 0,0 km/h (0 Bft)
24.07.2013 22:00 16,2 C 92 % 1021,5 hPa 0,0 l/m 0,3 km/h (0 Bft) NO 45 14,9 C 16,0 C 0,0 km/h (0 Bft)
24.07.2013 22:05 16,2 C 92 % 1021,8 hPa 0,0 l/m 0,3 km/h (0 Bft) NO 45 14,9 C 16,0 C 0,0 km/h (0 Bft)
24.07.2013 22:10 16,2 C 92 % 1021,8 hPa 0,0 l/m 0,0 km/h (0 Bft) O-NO 67 14,9 C 16,1 C 0,0 km/h (0 Bft)
24.07.2013 22:15 16,2 C 92 % 1021,8 hPa 0,0 l/m 0,0 km/h (0 Bft) W-NW 292 14,9 C 16,1 C 0,0 km/h (0 Bft)
24.07.2013 22:20 16,2 C 92 % 1021,8 hPa 0,0 l/m 0,2 km/h (0 Bft) O 90 14,9 C 16,1 C 0,0 km/h (0 Bft)
24.07.2013 22:25 16,3 C 92 % 1021,9 hPa 0,0 l/m 0,3 km/h (0 Bft) O-NO 67 15,0 C 16,1 C 0,0 km/h (0 Bft)
24.07.2013 22:30 16,2 C 92 % 1021,9 hPa 0,0 l/m 0,2 km/h (0 Bft) O-NO 67 14,9 C 16,1 C 0,0 km/h (0 Bft)
24.07.2013 22:35 16,2 C 93 % 1021,9 hPa 0,0 l/m 0,0 km/h (0 Bft) NO 45 15,1 C 16,1 C 0,0 km/h (0 Bft)
24.07.2013 22:40 16,2 C 93 % 1021,9 hPa 0,0 l/m 0,0 km/h (0 Bft) O-NO 67 15,1 C 16,1 C 0,0 km/h (0 Bft)
24.07.2013 22:45 16,2 C 93 % 1021,9 hPa 0,0 l/m 0,2 km/h (0 Bft) O-NO 67 15,1 C 16,1 C 0,0 km/h (0 Bft)
24.07.2013 22:50 16,2 C 93 % 1021,9 hPa 0,0 l/m 0,2 km/h (0 Bft) O-NO 67 15,1 C 16,1 C 0,0 km/h (0 Bft)
24.07.2013 22:55 16,2 C 93 % 1021,9 hPa 0,0 l/m 0,2 km/h (0 Bft) O-NO 67 15,1 C 16,1 C 0,0 km/h (0 Bft)
24.07.2013 23:00 16,2 C 93 % 1021,9 hPa 0,0 l/m 0,3 km/h (0 Bft) O-NO 67 15,1 C 16,1 C 1,6 km/h (1 Bft)
24.07.2013 23:05 16,2 C 93 % 1022,0 hPa 0,0 l/m 0,6 km/h (0 Bft) NO 45 15,1 C 16,1 C 0,0 km/h (0 Bft)
24.07.2013 23:10 16,2 C 93 % 1022,0 hPa 0,0 l/m 0,6 km/h (0 Bft) O 90 15,1 C 16,1 C 0,0 km/h (0 Bft)
24.07.2013 23:15 16,2 C 93 % 1022,0 hPa 0,0 l/m 0,3 km/h (0 Bft) O-NO 67 15,1 C 16,1 C 0,0 km/h (0 Bft)
24.07.2013 23:20 16,2 C 93 % 1022,0 hPa 0,0 l/m 0,0 km/h (0 Bft) NO 45 15,1 C 16,1 C 0,0 km/h (0 Bft)
24.07.2013 23:25 16,2 C 93 % 1022,0 hPa 0,0 l/m 0,0 km/h (0 Bft) O-NO 67 15,1 C 16,1 C 0,0 km/h (0 Bft)
24.07.2013 23:30 16,2 C 93 % 1022,0 hPa 0,0 l/m 0,0 km/h (0 Bft) O-NO 67 15,1 C 16,1 C 0,0 km/h (0 Bft)
24.07.2013 23:35 16,1 C 93 % 1022,0 hPa 0,0 l/m 0,0 km/h (0 Bft) O-NO 67 15,0 C 16,1 C 0,0 km/h (0 Bft)
24.07.2013 23:40 16,1 C 93 % 1022,0 hPa 0,0 l/m 0,0 km/h (0 Bft) O-NO 67 15,0 C 16,1 C 0,0 km/h (0 Bft)
24.07.2013 23:45 16,1 C 93 % 1022,1 hPa 0,0 l/m 0,0 km/h (0 Bft) NO 45 15,0 C 16,0 C 0,0 km/h (0 Bft)
24.07.2013 23:50 16,1 C 93 % 1022,1 hPa 0,0 l/m 0,0 km/h (0 Bft) O 90 15,0 C 16,0 C 0,0 km/h (0 Bft)
24.07.2013 23:55 16,1 C 93 % 1022,1 hPa 0,0 l/m 0,0 km/h (0 Bft) O-SO 112 15,0 C 16,1 C 0,0 km/h (0 Bft)
_ Min-Zeit 05:40 14:00 04:20 - 23:55 - - 01:45 05:35 23:55
Minimum _ 15,9 C 36 % 1018,8 hPa - 0,0 km/h (0 Bft) - - 11,5 C 15,8 C 0,0 km/h (0 Bft)
_ Max-Zeit 13:55 23:55 11:40 15:00 14:55 - - 17:15 14:05 14:50
Maximum _ 30,3 C 93 % 1023,6 hPa 1,4 l/m 13,4 km/h
S (3 Bft)
- - 18,6 C 31,5 C 27,2 km/h
S (4 Bft)
Durchschnitt _ 20,4 C 71 % 1020,8 hPa #4,1 l/m 2,1 km/h (1 Bft) S - 14,2 C 20,9 C 2,8 km/h (1 Bft)